FW8537 Weather Reports


Display with metric or nautical units.
time (UTC)temp
F
wind
direction
speed
MPH
gust
MPH
rain 1hr
in
rain 24hr
in
rain mn
in
humidity
%
barometer
mb
20260904075745 79 96 0.0 0.0 0.00 0.00 0.00 92 1010.3
20260904074954 79 96 0.0 0.0 0.00 0.00 0.00 92 1010.3
20260904074503 78 96 0.0 0.0 0.00 0.00 0.00 91 1010.2
20260904074454 79 96 0.0 0.0 0.00 0.00 0.00 91 1010.3
20260904073952 79 96 0.0 0.0 0.00 0.00 0.00 91 1010.2
20260904073621 79 96 0.0 0.0 0.00 0.00 0.00 92 1010.4
20260904073552 79 96 0.0 0.0 0.00 0.00 0.00 92 1010.2
20260904073018 79 96 0.0 0.0 0.00 0.00 0.00 92 1010.2
20260904071946 79 96 0.0 0.0 0.00 0.00 0.00 92 1010.4
20260904071535 79 96 0.0 0.0 0.00 0.00 0.00 92 1010.3
20260904071443 79 96 0.0 0.0 0.00 0.00 0.00 92 1010.4
20260904071238 79 96 0.0 1.0 0.00 0.00 0.00 92 1010.5
20260904070444 79 96 0.0 1.0 0.00 0.00 0.00 92 1010.5
20260904070032 79 96 0.0 0.0 0.00 0.00 0.00 92 1010.3
20260904065941 79 96 0.0 0.0 0.00 0.00 0.00 92 1010.5
20260904065436 79 96 0.0 0.0 0.00 0.00 0.00 92 1010.5
20260904064934 79 95 0.0 0.0 0.00 0.00 0.00 92 1010.5
20260904064526 79 96 0.0 0.0 0.00 0.00 0.00 92 1010.4
20260904064431 79 96 0.0 1.0 0.00 0.00 0.00 92 1010.5
20260904063930 79 95 0.0 1.0 0.00 0.00 0.00 92 1010.6
20260904063453 79 95 0.0 0.0 0.00 0.00 0.00 92 1010.6
20260904063010 79 96 0.0 0.0 0.00 0.00 0.00 92 1010.5
20260904062929 79 96 0.0 0.0 0.00 0.00 0.00 92 1010.6
20260904062429 79 96 0.0 1.0 0.00 0.00 0.00 92 1010.7
20260904061931 79 96 0.0 1.0 0.00 0.00 0.00 92 1010.7
20260904061727 79 95 0.0 1.0 0.00 0.00 0.00 92 1010.7
20260904061647 79 96 0.0 1.0 0.00 0.00 0.00 92 1010.5
20260904061316 79 95 0.0 0.0 0.00 0.00 0.00 92 1011.0
20260904061005 79 95 0.0 0.0 0.00 0.00 0.00 92 1011.0
20260904060005 79 95 0.0 0.0 0.00 0.00 0.00 92 1010.9
20260904055930 79 95 0.0 0.0 0.00 0.00 0.00 92 1011.0
20260904055430 79 95 0.0 0.0 0.00 0.00 0.00 92 1011.1
20260904055224 79 95 0.0 0.0 0.00 0.00 0.00 92 1011.1
20260904054509 79 95 0.0 0.0 0.00 0.00 0.00 92 1010.9
20260904054425 79 95 0.0 1.0 0.00 0.00 0.00 92 1011.1
20260904053923 79 95 0.0 1.0 0.00 0.00 0.00 92 1011.1
20260904053424 79 95 0.0 0.0 0.00 0.00 0.00 92 1011.1
20260904053040 78 95 0.0 0.0 0.00 0.00 0.00 92 1011.0
20260904052924 79 95 0.0 1.0 0.00 0.00 0.00 92 1011.1
20260904052425 78 95 0.0 1.0 0.00 0.00 0.00 92 1011.2
20260904051922 79 96 0.0 1.0 0.00 0.00 0.00 91 1011.2
20260904051537 78 95 0.0 1.0 0.00 0.00 0.00 92 1011.0
20260904051423 79 95 0.0 1.0 0.00 0.00 0.00 91 1011.2
20260904050924 79 95 0.0 0.0 0.00 0.00 0.00 91 1011.2
20260904050423 79 112 0.0 0.0 0.00 0.00 0.00 91 1011.2
20260904050010 78 112 0.0 0.0 0.00 0.00 0.00 91 1011.1
20260904045921 79 112 0.0 0.0 0.00 0.00 0.00 91 1011.2
20260904045419 79 112 0.0 0.0 0.00 0.00 0.00 91 1011.2
20260904044916 79 112 0.0 1.0 0.00 0.00 0.00 91 1011.2
20260904044605 79 112 0.0 1.0 0.00 0.00 0.00 91 1011.1
20260904044415 79 112 0.0 1.0 0.00 0.00 0.00 91 1011.4
20260904043908 79 112 0.0 0.0 0.00 0.00 0.00 91 1011.4
20260904043407 80 112 0.0 0.0 0.00 0.00 0.00 91 1011.4
20260904043053 79 112 0.0 0.0 0.00 0.00 0.00 91 1011.2
20260904042913 80 112 0.0 0.0 0.00 0.00 0.00 91 1011.2
20260904042412 80 112 0.0 0.0 0.00 0.00 0.00 91 1011.2
20260904041910 80 112 0.0 0.0 0.00 0.00 0.00 91 1011.2
20260904041531 79 112 0.0 0.0 0.00 0.00 0.00 91 1011.1
20260904041410 80 112 0.0 0.0 0.00 0.00 0.00 91 1011.4
20260904040909 80 112 0.0 0.0 0.00 0.00 0.00 91 1011.4
20260904040409 80 112 0.0 1.0 0.00 0.00 0.00 90 1011.4
20260904040015 79 112 0.0 1.0 0.00 0.00 0.00 90 1011.3
20260904035907 80 112 0.0 1.0 0.00 0.00 0.00 90 1011.3
20260904035404 80 111 0.0 1.0 0.00 0.00 0.00 90 1011.3
20260904034903 80 112 0.0 1.0 0.00 0.00 0.00 91 1011.3
20260904034503 80 112 0.0 1.0 0.00 0.00 0.00 90 1011.2
20260904034402 80 112 0.0 1.0 0.00 0.00 0.00 90 1011.3
20260904033902 80 112 1.0 1.0 0.00 0.00 0.00 90 1011.3
20260904033403 80 110 1.0 1.0 0.00 0.00 0.00 91 1011.3
20260904033003 79 108 0.0 1.0 0.00 0.00 0.00 90 1011.2
20260904032903 80 107 0.0 1.0 0.00 0.00 0.00 90 1011.4
20260904032404 79 95 0.0 0.0 0.00 0.00 0.00 90 1011.4
20260904031945 80 95 0.0 0.0 0.00 0.00 0.00 90 1011.5
20260904031934 80 94 0.0 0.0 0.00 0.00 0.00 90 1011.4
20260904031616 79 95 0.0 0.0 0.00 0.00 0.00 90 1011.3
20260904030902 80 94 0.0 0.0 0.00 0.00 0.00 90 1011.5
20260904030401 80 94 0.0 1.0 0.00 0.00 0.00 90 1011.5
20260904030147 80 94 1.0 2.0 0.00 0.00 0.00 90 1011.5
20260904030128 80 95 0.0 2.0 0.00 0.00 0.00 90 1011.4
20260904025401 80 96 1.0 2.0 0.00 0.00 0.00 90 1011.5
20260904024902 80 116 1.0 2.0 0.00 0.00 0.00 90 1011.5
20260904024554 80 107 1.0 2.0 0.00 0.00 0.00 90 1011.4
20260904024401 80 129 1.0 2.0 0.00 0.00 0.00 90 1011.6
20260904024152 80 125 1.0 3.0 0.00 0.00 0.00 90 1011.6
20260904023402 80 124 2.0 4.0 0.00 0.00 0.00 90 1011.6
20260904023034 80 146 0.0 4.0 0.00 0.00 0.00 90 1011.4
20260904022902 80 113 2.0 4.0 0.00 0.00 0.00 90 1011.6
20260904022655 80 121 1.0 3.0 0.00 0.00 0.00 90 1011.6
20260904021901 80 138 0.0 2.0 0.00 0.00 0.00 90 1011.6
20260904021538 79 219 0.0 2.0 0.00 0.00 0.00 89 1011.4
20260904021401 80 219 0.0 2.0 0.00 0.00 0.00 89 1011.7
20260904020902 80 207 0.0 2.0 0.00 0.00 0.00 89 1011.7
20260904020401 80 190 0.0 1.0 0.00 0.00 0.00 89 1011.7
20260904020008 80 117 0.0 1.0 0.00 0.00 0.00 89 1011.5
20260904015902 80 115 0.0 1.0 0.00 0.00 0.00 89 1011.7
20260904015402 80 142 0.0 1.0 0.00 0.00 0.00 89 1011.7
20260904014929 80 142 0.0 0.0 0.00 0.00 0.00 89 1011.7
20260904014922 80 142 0.0 1.0 0.00 0.00 0.00 89 1011.7
20260904014648 80 142 0.0 1.0 0.00 0.00 0.00 89 1011.6
20260904013934 80 159 0.0 0.0 0.00 0.00 0.00 88 1011.7
20260904013924 80 159 0.0 0.0 0.00 0.00 0.00 89 1011.7
20260904013003 80 159 0.0 0.0 0.00 0.00 0.00 88 1011.6
20260904012903 80 159 0.0 0.0 0.00 0.00 0.00 88 1011.5
20260904012402 80 159 0.0 1.0 0.00 0.00 0.00 88 1011.5
20260904012149 81 128 0.0 1.0 0.00 0.00 0.00 88 1011.5
20260904011504 80 128 0.0 1.0 0.00 0.00 0.00 88 1011.3
20260904011402 81 128 0.0 1.0 0.00 0.00 0.00 88 1011.2
20260904011148 81 123 0.0 1.0 0.00 0.00 0.00 88 1011.2
20260904010403 81 130 0.0 0.0 0.00 0.00 0.00 87 1011.2
20260904010041 81 130 0.0 0.0 0.00 0.00 0.00 87 1011.1
20260904005901 81 130 0.0 1.0 0.00 0.00 0.00 87 1011.0
20260904005401 81 130 1.0 2.0 0.00 0.00 0.00 87 1011.0
20260904004903 81 130 1.0 3.0 0.00 0.00 0.00 87 1011.0
20260904004521 81 96 1.0 3.0 0.00 0.00 0.00 87 1010.8
20260904004401 82 120 1.0 3.0 0.00 0.00 0.00 87 1011.0
20260904004149 82 93 1.0 3.0 0.00 0.00 0.00 86 1011.0
20260904003353 82 103 2.0 3.0 0.00 0.00 0.00 86 1011.0
20260904003004 82 112 1.0 3.0 0.00 0.00 0.00 86 1010.9
20260904002849 82 107 2.0 3.0 0.00 0.00 0.00 86 1011.0
20260904002348 82 117 3.0 5.0 0.00 0.00 0.00 86 1011.0
20260904002140 82 104 3.0 7.0 0.00 0.00 0.00 86 1011.0
20260904001506 82 118 3.0 7.0 0.00 0.00 0.00 86 1010.8
20260904001346 82 104 4.0 7.0 0.00 0.00 0.00 86 1011.1
20260904000845 82 96 3.0 6.0 0.00 0.00 0.00 86 1011.1
20260904000344 82 111 3.0 5.0 0.00 0.00 0.00 86 1011.1
20260904000140 82 98 1.0 5.0 0.00 0.00 0.00 87 1011.0
20260903235845 82 141 3.0 6.0 0.00 0.00 0.00 86 1010.9
20260903235345 82 115 3.0 6.0 0.00 0.00 0.00 87 1010.9
20260903234845 83 119 4.0 8.0 0.00 0.00 0.00 87 1010.9
20260903234553 82 148 3.0 8.0 0.00 0.00 0.00 87 1010.8
20260903234344 83 113 5.0 11.0 0.00 0.00 0.00 87 1010.5
20260903233844 83 103 5.0 11.0 0.00 0.00 0.00 87 1010.5
20260903233346 83 109 5.0 8.0 0.00 0.00 0.00 88 1010.5
20260903233035 83 115 4.0 10.0 0.00 0.00 0.00 87 1010.4
20260903232839 83 113 5.0 10.0 0.00 0.00 0.00 88 1010.6
20260903232639 83 123 5.0 10.0 0.00 0.00 0.00 88 1010.6
20260903231839 83 94 5.0 10.0 0.00 0.00 0.00 88 1010.6
20260903231637 84 96 5.0 8.0 0.00 0.00 0.00 88 1010.7
20260903231621 83 103 5.0 10.0 0.00 0.00 0.00 88 1010.5
20260903230836 84 148 4.0 8.0 0.00 0.00 0.00 88 1010.7
20260903230336 84 107 3.0 8.0 0.00 0.00 0.00 88 1010.7
20260903230013 83 112 2.0 6.0 0.00 0.00 0.00 88 1010.6
20260903225836 84 121 4.0 7.0 0.00 0.00 0.00 88 1010.7
20260903225335 84 108 5.0 8.0 0.00 0.00 0.00 88 1010.7
20260903224836 84 121 5.0 9.0 0.00 0.00 0.00 87 1010.7
20260903224506 84 87 6.0 9.0 0.00 0.00 0.00 87 1010.6
20260903224335 84 111 4.0 9.0 0.00 0.00 0.00 87 1010.5
20260903223832 84 98 4.0 7.0 0.00 0.00 0.00 87 1010.5
20260903223331 84 92 4.0 8.0 0.00 0.00 0.00 87 1010.5
20260903223052 84 94 4.0 8.0 0.00 0.00 0.00 86 1010.4
20260903222831 84 98 4.0 8.0 0.00 0.00 0.00 86 1010.5
20260903222628 84 115 5.0 8.0 0.00 0.00 0.00 86 1010.5
20260903221819 84 127 5.0 8.0 0.00 0.00 0.00 86 1010.5
20260903221553 84 98 5.0 9.0 0.00 0.00 0.00 86 1010.3
20260903221319 84 89 5.0 9.0 0.00 0.00 0.00 86 1010.3
20260903220819 84 126 5.0 9.0 0.00 0.00 0.00 86 1010.3
20260903220318 84 123 5.0 9.0 0.00 0.00 0.00 86 1010.3
20260903220056 84 127 6.0 9.0 0.00 0.00 0.00 86 1010.2
20260903215820 84 119 5.0 9.0 0.00 0.00 0.00 86 1010.4
20260903215316 85 127 5.0 9.0 0.00 0.00 0.00 86 1010.4
20260903214815 85 120 5.0 9.0 0.00 0.00 0.00 86 1010.4
20260903214550 84 136 5.0 9.0 0.00 0.00 0.00 86 1010.3
20260903214315 85 134 6.0 10.0 0.00 0.00 0.00 86 1010.4
20260903213814 85 107 6.0 11.0 0.00 0.00 0.00 85 1010.4
20260903213314 85 111 7.0 11.0 0.00 0.00 0.00 85 1010.4
20260903213037 85 103 6.0 10.0 0.00 0.00 0.00 85 1010.3
20260903212815 85 124 6.0 10.0 0.00 0.00 0.00 85 1010.5
20260903212313 85 98 7.0 12.0 0.00 0.00 0.00 85 1010.5
20260903211814 86 105 8.0 12.0 0.00 0.00 0.00 84 1010.5
20260903211506 85 117 8.0 12.0 0.00 0.00 0.00 84 1010.3
20260903211308 86 128 8.0 13.0 0.00 0.00 0.00 84 1009.8
20260903210808 86 109 8.0 13.0 0.00 0.00 0.00 84 1009.8
20260903210308 86 117 8.0 13.0 0.00 0.00 0.00 84 1009.8
20260903210006 85 126 7.0 13.0 0.00 0.00 0.00 84 1009.7
20260903205807 85 111 7.0 13.0 0.00 0.00 0.00 84 1009.2
20260903205307 85 114 8.0 16.0 0.00 0.00 0.00 84 1009.2
20260903204807 85 75 9.0 16.0 0.00 0.00 0.00 84 1009.2
20260903204556 85 110 7.0 14.0 0.00 0.00 0.00 84 1009.0
20260903204304 86 120 9.0 14.0 0.00 0.00 0.00 84 1009.2
20260903203801 86 108 8.0 14.0 0.00 0.00 0.00 83 1009.2
20260903203302 86 77 7.0 13.0 0.00 0.00 0.00 83 1009.2
20260903203049 86 111 5.0 13.0 0.00 0.00 0.00 83 1009.1
20260903202802 86 117 6.0 13.0 0.00 0.00 0.00 83 1009.9
20260903202302 86 84 6.0 13.0 0.00 0.00 0.00 82 1009.9
20260903202101 86 78 6.0 10.0 0.00 0.00 0.00 81 1009.9
20260903201539 85 88 5.0 10.0 0.00 0.00 0.00 83 1009.8
20260903201301 86 63 6.0 12.0 0.00 0.00 0.00 82 1010.5
20260903201103 86 69 7.0 12.0 0.00 0.00 0.00 82 1010.5
20260903200302 86 108 7.0 13.0 0.00 0.00 0.00 83 1010.5
20260903200030 85 83 5.0 13.0 0.00 0.00 0.00 83 1010.3
20260903195803 86 108 7.0 13.0 0.00 0.00 0.00 84 1009.9
20260903195301 86 80 7.0 13.0 0.00 0.00 0.00 85 1009.9
20260903195149 85 126 7.0 13.0 0.00 0.00 0.00 85 1010.4
20260903195144 85 77 7.0 13.0 0.00 0.00 0.00 85 1009.9
20260903194513 85 111 6.0 13.0 0.00 0.00 0.00 85 1009.8
20260903193804 85 67 6.0 13.0 0.00 0.00 0.00 86 1010.4
20260903193303 85 102 6.0 11.0 0.00 0.00 0.00 86 1010.4
20260903193005 84 116 6.0 11.0 0.00 0.00 0.00 86 1010.2
20260903192802 84 109 5.0 11.0 0.00 0.00 0.00 86 1010.4
20260903192302 84 81 5.0 9.0 0.00 0.00 0.00 87 1010.4
20260903192052 84 104 4.0 9.0 0.00 0.00 0.00 87 1010.4
20260903191509 83 101 5.0 9.0 0.00 0.00 0.00 87 1010.3
20260903191302 84 88 4.0 9.0 0.00 0.00 0.00 88 1010.5
20260903191056 83 69 5.0 9.0 0.00 0.00 0.00 88 1010.5
20260903190302 83 65 5.0 9.0 0.00 0.00 0.00 88 1010.5
20260903190005 83 87 5.0 9.0 0.00 0.00 0.00 88 1010.4
20260903185804 84 96 4.0 9.0 0.00 0.00 0.00 89 1010.6
20260903185257 84 94 3.0 9.0 0.00 0.00 0.00 88 1010.6
20260903184751 83 95 2.0 5.0 0.00 0.00 0.00 88 1010.6
20260903184504 83 92 2.0 5.0 0.00 0.00 0.00 89 1010.4
20260903184249 83 98 1.0 6.0 0.00 0.00 0.00 88 1010.9
20260903183748 83 95 0.0 6.0 0.00 0.00 0.00 88 1010.9
20260903183248 83 12 1.0 3.0 0.00 0.00 0.00 88 1010.9
20260903183006 82 10 0.0 3.0 0.00 0.00 0.00 88 1010.8
20260903182745 83 10 2.0 6.0 0.00 0.00 0.00 88 1011.3
20260903182247 83 313 3.0 6.0 0.00 0.00 0.00 88 1011.3
20260903181745 83 347 3.0 6.0 0.00 0.00 0.00 88 1011.3
20260903181504 82 341 2.0 7.0 0.00 0.00 0.00 88 1011.1
20260903181245 83 337 2.0 7.0 0.00 0.00 0.00 88 1011.5
20260903180744 83 350 2.0 6.0 0.00 0.00 0.00 87 1011.5
20260903180533 83 43 2.0 5.0 0.00 0.00 0.00 87 1011.5
20260903180052 83 51 1.0 5.0 0.00 0.00 0.00 87 1011.4
20260903175750 84 31 3.0 0.0 0.00 0.00 0.00 87 1011.4
20260903174803 84 44 3.0 9.0 0.00 0.00 0.00 86 1011.4
20260903174535 84 30 3.0 9.0 0.00 0.00 0.00 86 1010.9
20260903174302 85 307 3.0 9.0 0.00 0.00 0.00 85 1011.1
20260903173800 86 351 3.0 9.0 0.00 0.00 0.00 84 1011.1
20260903173554 86 26 4.0 9.0 0.00 0.00 0.00 86 1011.1
20260903173031 85 12 4.0 9.0 0.00 0.00 0.00 85 1011.0
20260903172802 85 64 5.0 10.0 0.00 0.00 0.00 86 1011.2
20260903172306 85 75 7.0 11.0 0.00 0.00 0.00 86 1011.2
20260903171751 85 111 7.0 14.0 0.00 0.00 0.00 86 1011.2
20260903171537 84 112 6.0 13.0 0.00 0.00 0.00 86 1010.9
20260903171240 85 72 7.0 15.0 0.00 0.00 0.00 87 1011.0
20260903170739 85 121 8.0 15.0 0.00 0.00 0.00 86 1011.0
20260903170232 86 93 7.0 13.0 0.00 0.00 0.00 85 1011.0
20260903170032 86 109 7.0 14.0 0.00 0.00 0.00 84 1011.5
20260903170028 86 106 6.0 12.0 0.00 0.00 0.00 84 1011.3
20260903165526 86 103 7.0 14.0 0.00 0.00 0.00 83 1011.5
20260903164732 86 104 7.0 12.0 0.00 0.00 0.00 83 1011.5
20260903164527 86 59 7.0 13.0 0.00 0.00 0.00 83 1011.5
20260903164522 86 69 6.0 10.0 0.00 0.00 0.00 83 1011.4
20260903164028 87 82 7.0 15.0 0.00 0.00 0.00 83 1011.5
20260903163230 89 108 4.0 15.0 0.00 0.00 0.00 81 1011.5
20260903163005 89 101 4.0 14.0 0.00 0.00 0.00 79 1011.5
20260903162730 90 92 1.0 8.0 0.00 0.00 0.00 78 1011.6
20260903162524 90 87 2.0 8.0 0.00 0.00 0.00 76 1011.6
20260903161730 89 269 3.0 8.0 0.00 0.00 0.00 79 1011.6
20260903161503 88 113 2.0 8.0 0.00 0.00 0.00 79 1011.5
20260903161230 89 97 3.0 8.0 0.00 0.00 0.00 78 1011.6
20260903160731 89 149 2.0 8.0 0.00 0.00 0.00 79 1011.6
20260903160523 90 111 1.0 8.0 0.00 0.00 0.00 77 1011.6
20260903160043 90 149 0.0 4.0 0.00 0.00 0.00 79 1011.8
20260903155731 89 219 1.0 5.0 0.00 0.00 0.00 78 1011.9
20260903155230 89 135 2.0 7.0 0.00 0.00 0.00 81 1011.9
20260903154730 88 119 2.0 7.0 0.00 0.00 0.00 79 1011.9
20260903154525 89 119 1.0 4.0 0.00 0.00 0.00 78 1012.0
20260903154521 88 114 3.0 5.0 0.00 0.00 0.00 80 1011.9
20260903153730 89 207 2.0 4.0 0.00 0.00 0.00 80 1012.0
20260903153525 88 123 2.0 7.0 0.00 0.00 0.00 80 1012.0
20260903153005 88 137 2.0 7.0 0.00 0.00 0.00 79 1012.0
20260903152728 89 133 2.0 7.0 0.00 0.00 0.00 79 1012.1
20260903152228 89 166 1.0 5.0 0.00 0.00 0.00 79 1012.1
20260903151733 89 183 1.0 5.0 0.00 0.00 0.00 79 1012.1
20260903151502 89 226 1.0 5.0 0.00 0.00 0.00 78 1011.9
20260903151231 89 254 2.0 5.0 0.00 0.00 0.00 79 1012.0
20260903150731 89 161 2.0 7.0 0.00 0.00 0.00 79 1012.0
20260903150229 89 107 2.0 7.0 0.00 0.00 0.00 78 1012.0
20260903150109 89 128 2.0 6.0 0.00 0.00 0.00 78 1011.9
20260903145728 90 144 2.0 6.0 0.00 0.00 0.00 76 1012.0
20260903145229 91 176 2.0 6.0 0.00 0.00 0.00 78 1012.0
20260903144728 91 247 2.0 7.0 0.00 0.00 0.00 78 1012.0
20260903144539 90 148 2.0 7.0 0.00 0.00 0.00 77 1011.8
20260903144228 90 227 2.0 7.0 0.00 0.00 0.00 78 1011.9
20260903143727 89 274 2.0 10.0 0.00 0.00 0.00 80 1011.9
20260903143225 88 219 2.0 10.0 0.00 0.00 0.00 80 1011.9
20260903143036 88 140 2.0 10.0 0.00 0.00 0.00 80 1011.5
20260903142725 88 234 1.0 5.0 0.00 0.00 0.00 80 1011.7
20260903142226 88 229 1.0 3.0 0.00 0.00 0.00 82 1011.7
20260903142009 87 188 1.0 6.0 0.00 0.00 0.00 83 1011.7
20260903141511 86 209 1.0 6.0 0.00 0.00 0.00 82 1011.4
20260903141226 87 157 1.0 6.0 0.00 0.00 0.00 83 1011.5
20260903140724 86 126 2.0 5.0 0.00 0.00 0.00 83 1011.5
20260903140224 86 234 2.0 5.0 0.00 0.00 0.00 83 1011.5
20260903140015 85 227 2.0 5.0 0.00 0.00 0.00 83 1011.4
20260903135724 85 193 2.0 6.0 0.00 0.00 0.00 83 1011.5
20260903135223 85 232 1.0 6.0 0.00 0.00 0.00 84 1011.5
20260903134720 84 213 1.0 7.0 0.00 0.00 0.00 84 1011.5
20260903134508 83 155 0.0 7.0 0.00 0.00 0.00 85 1011.3
20260903134220 84 213 1.0 7.0 0.00 0.00 0.00 85 1011.5
20260903133719 83 227 1.0 2.0 0.00 0.00 0.00 86 1011.5
20260903133219 82 215 0.0 2.0 0.00 0.00 0.00 87 1011.5
20260903133005 82 148 0.0 2.0 0.00 0.00 0.00 87 1011.4
20260903132719 82 136 0.0 2.0 0.00 0.00 0.00 88 1011.5
20260903132220 81 136 0.0 2.0 0.00 0.00 0.00 88 1011.5
20260903131717 81 215 0.0 1.0 0.00 0.00 0.00 88 1011.5
20260903131503 80 215 0.0 1.0 0.00 0.00 0.00 89 1011.4
20260903131217 80 210 0.0 2.0 0.00 0.00 0.00 89 1011.5
20260903130707 80 126 0.0 2.0 0.00 0.00 0.00 90 1011.5
20260903130208 80 121 0.0 1.0 0.00 0.00 0.00 90 1011.5
20260903130037 79 219 0.0 1.0 0.00 0.00 0.00 90 1011.2
20260903125707 79 219 0.0 1.0 0.00 0.00 0.00 90 1011.4
20260903125206 79 232 0.0 1.0 0.00 0.00 0.00 91 1011.4
20260903124707 79 271 0.0 1.0 0.00 0.00 0.00 91 1011.4
20260903124535 79 270 0.0 1.0 0.00 0.00 0.00 91 1011.4
20260903124207 79 271 0.0 1.0 0.00 0.00 0.00 92 1011.5
20260903123954 79 271 0.0 1.0 0.00 0.00 0.00 92 1011.5
20260903123318 78 221 0.0 2.0 0.00 0.00 0.00 92 1011.5
20260903123258 78 271 0.0 1.0 0.00 0.00 0.00 92 1011.5
20260903122450 78 221 0.0 2.0 0.00 0.00 0.00 92 1011.5
20260903121704 78 222 0.0 1.0 0.00 0.00 0.00 93 1011.5
20260903121510 77 222 0.0 1.0 0.00 0.00 0.00 93 1011.3
20260903121452 78 222 0.0 0.0 0.00 0.00 0.00 93 1011.4
20260903120704 78 222 0.0 0.0 0.00 0.00 0.00 93 1011.4
20260903120204 78 222 0.0 0.0 0.00 0.00 0.00 93 1011.4
20260903120004 77 222 0.0 0.0 0.00 0.00 0.00 93 1010.9
20260903115704 78 222 0.0 0.0 0.00 0.00 0.00 93 1011.0
20260903115204 77 222 0.0 0.0 0.00 0.00 0.00 93 1011.0
20260903114701 77 222 0.0 0.0 0.00 0.00 0.00 93 1011.0
20260903114503 77 222 0.0 0.0 0.00 0.00 0.00 93 1010.8
20260903114446 77 222 0.0 0.0 0.00 0.00 0.00 93 1011.0
20260903113701 77 222 0.0 0.0 0.00 0.00 0.00 93 1011.0
20260903113203 77 222 0.0 0.0 0.00 0.00 0.00 93 1011.0
20260903113004 76 222 0.0 0.0 0.00 0.00 0.00 93 1010.4
20260903112702 77 222 0.0 0.0 0.00 0.00 0.00 93 1010.5
20260903112446 77 222 0.0 0.0 0.00 0.00 0.00 93 1010.5
20260903111702 77 222 0.0 0.0 0.00 0.00 0.00 93 1010.5
20260903111502 76 222 0.0 0.0 0.00 0.00 0.00 93 1010.3
20260903111200 77 222 0.0 0.0 0.00 0.00 0.00 93 1010.4
20260903110702 77 222 0.0 0.0 0.00 0.00 0.00 93 1010.4
20260903110202 77 221 0.0 0.0 0.00 0.00 0.00 93 1010.4
20260903110003 76 222 0.0 0.0 0.00 0.02 0.00 93 1009.9
20260903105701 77 221 0.0 0.0 0.00 0.00 0.00 93 1010.0
20260903105202 77 222 0.0 0.0 0.00 0.00 0.00 92 1010.0
20260903104701 77 221 0.0 0.0 0.00 0.01 0.00 93 1010.0
20260903104501 76 222 0.0 0.0 0.00 0.02 0.00 92 1009.8
20260903104201 77 222 0.0 0.0 0.00 0.01 0.00 92 1009.9
20260903103703 77 222 0.0 0.0 0.00 0.02 0.00 92 1009.9
20260903103201 77 222 0.0 0.0 0.00 0.02 0.00 92 1009.9
20260903103003 76 222 0.0 0.0 0.00 0.02 0.00 92 1009.8
20260903102946 77 222 0.0 0.0 0.00 0.02 0.00 92 1009.9
20260903102202 77 222 0.0 0.0 0.00 0.02 0.00 92 1009.9
20260903101700 77 222 0.0 0.0 0.00 0.02 0.00 92 1009.9
20260903101501 76 222 0.0 0.0 0.00 0.02 0.00 92 1009.8
20260903101202 77 222 0.0 0.0 0.00 0.02 0.00 92 1009.9
20260903100701 77 222 0.0 1.0 0.00 0.02 0.00 92 1009.9
20260903100202 77 222 0.0 1.0 0.00 0.02 0.00 92 1009.9
20260903100004 77 222 0.0 1.0 0.00 0.02 0.00 92 1009.8
20260903095702 77 222 0.0 1.0 0.00 0.02 0.00 92 1009.9
20260903095202 77 222 0.0 1.0 0.00 0.02 0.00 92 1009.9
20260903094702 77 222 0.0 0.0 0.00 0.02 0.00 92 1009.9
20260903094602 77 222 0.0 0.0 0.00 0.02 0.00 92 1009.6
20260903094201 77 222 0.0 0.0 0.00 0.02 0.00 92 1009.7
20260903093703 77 222 0.0 0.0 0.00 0.02 0.00 92 1009.7
20260903093454 77 222 0.0 0.0 0.00 0.02 0.00 92 1009.7
20260903093108 77 222 0.0 0.0 0.00 0.02 0.00 92 1009.6
20260903092702 77 222 0.0 0.0 0.00 0.02 0.00 92 1009.7
20260903092203 77 222 0.0 0.0 0.00 0.02 0.00 92 1009.7
20260903091702 77 221 0.0 0.0 0.00 0.02 0.00 92 1009.7
20260903091534 77 222 0.0 0.0 0.00 0.02 0.00 92 1009.5
20260903091203 78 222 0.0 0.0 0.00 0.02 0.00 92 1009.6
20260903090704 78 221 0.0 0.0 0.00 0.02 0.00 92 1009.6
20260903090203 78 222 0.0 1.0 0.00 0.02 0.00 92 1009.6
20260903090037 77 222 0.0 1.0 0.00 0.02 0.00 92 1009.4
20260903085703 78 222 0.0 3.0 0.00 0.02 0.00 92 1009.5
20260903085203 78 222 0.0 3.0 0.00 0.02 0.00 92 1009.5
20260903084703 78 232 0.0 2.0 0.00 0.02 0.00 92 1009.5
20260903084530 77 221 0.0 1.0 0.00 0.02 0.00 92 1009.5
20260903084202 78 215 0.0 1.0 0.00 0.02 0.00 91 1009.6
20260903083702 78 215 0.0 1.0 0.00 0.02 0.00 91 1009.6
20260903083202 78 215 0.0 1.0 0.00 0.02 0.00 91 1009.6
20260903083030 78 215 0.0 0.0 0.00 0.02 0.00 91 1009.3
20260903082703 78 215 0.0 0.0 0.00 0.02 0.00 91 1009.4
20260903082203 78 215 0.0 1.0 0.00 0.02 0.00 91 1009.4
20260903081953 78 215 0.0 4.0 0.00 0.02 0.00 91 1009.4
20260903081510 78 215 0.0 4.0 0.00 0.02 0.00 91 1009.4
20260903081203 78 219 1.0 4.0 0.00 0.02 0.00 91 1009.5
20260903080702 79 208 1.0 2.0 0.00 0.02 0.00 91 1009.5
20260903080202 79 221 1.0 3.0 0.00 0.02 0.00 92 1009.5
20260903080004 78 220 0.0 3.0 0.00 0.02 0.00 92 1009.3